TimeCST,TemperatureF,Dew PointF,Humidity,Sea Level PressureIn,VisibilityMPH,Wind Direction,Wind SpeedMPH,Gust SpeedMPH,PrecipitationIn,Events,Conditions,WindDirDegrees,DateUTC
1:56 AM,43.0,37.0,80,30.23,10.0,NNE,9.2,-,N/A,,Clear,20,2013-01-07 07:56:00
2:56 AM,41.0,37.0,86,30.23,10.0,NNE,6.9,-,N/A,,Clear,20,2013-01-07 08:56:00
3:56 AM,41.0,36.0,82,30.24,10.0,NNE,8.1,-,N/A,,Clear,20,2013-01-07 09:56:00
4:56 AM,39.9,36.0,86,30.23,10.0,North,6.9,-,N/A,,Clear,10,2013-01-07 10:56:00
5:56 AM,37.9,35.1,89,30.24,10.0,North,5.8,-,N/A,,Clear,10,2013-01-07 11:56:00
6:56 AM,37.0,34.0,89,30.26,10.0,North,4.6,-,N/A,,Clear,360,2013-01-07 12:56:00
7:56 AM,41.0,36.0,82,30.27,10.0,NE,5.8,-,N/A,,Clear,40,2013-01-07 13:56:00
8:56 AM,46.9,37.0,68,30.30,10.0,ENE,8.1,-,N/A,,Clear,60,2013-01-07 14:56:00
9:56 AM,52.0,36.0,54,30.28,10.0,East,12.7,-,N/A,,Unknown,80,2013-01-07 15:56:00
10:56 AM,55.9,34.0,44,30.26,10.0,East,10.4,-,N/A,,Clear,100,2013-01-07 16:56:00
11:56 AM,59.0,34.0,39,30.22,10.0,Variable,5.8,-,N/A,,Clear,0,2013-01-07 17:56:00
1:56 PM,63.0,34.0,34,30.19,10.0,NNE,5.8,-,N/A,,Clear,20,2013-01-07 19:56:00
2:56 PM,63.0,34.0,34,30.19,10.0,ENE,5.8,-,N/A,,Clear,70,2013-01-07 20:56:00
3:56 PM,61.0,34.0,36,30.19,10.0,East,8.1,-,N/A,,Clear,90,2013-01-07 21:56:00
4:56 PM,55.9,36.0,47,30.20,10.0,NE,6.9,-,N/A,,Clear,50,2013-01-07 22:56:00
5:56 PM,53.1,37.0,55,30.22,10.0,ENE,5.8,-,N/A,,Partly Cloudy,60,2013-01-07 23:56:00
6:56 PM,50.0,37.0,61,30.21,10.0,East,8.1,-,N/A,,Clear,80,2013-01-08 00:56:00
7:56 PM,48.0,35.1,61,30.24,10.0,ENE,3.5,-,N/A,,Partly Cloudy,70,2013-01-08 01:56:00
8:56 PM,50.0,36.0,59,30.23,10.0,ENE,4.6,-,N/A,,Mostly Cloudy,60,2013-01-08 02:56:00
9:56 PM,46.9,36.0,66,30.20,10.0,ENE,6.9,-,N/A,,Partly Cloudy,70,2013-01-08 03:56:00
10:56 PM,46.9,37.0,68,30.19,10.0,ENE,6.9,-,N/A,,Clear,70,2013-01-08 04:56:00
11:56 PM,46.9,37.0,68,30.17,10.0,East,8.1,-,N/A,,Clear,80,2013-01-08 05:56:00